TimeCDT,TemperatureF,Dew PointF,Humidity,Sea Level PressureIn,VisibilityMPH,Wind Direction,Wind SpeedMPH,Gust SpeedMPH,PrecipitationIn,Events,Conditions,WindDirDegrees,DateUTC
12:54 AM,64.9,62.1,90,29.97,10.0,NNE,4.6,-,N/A,,Partly Cloudy,20,2013-08-09 05:54:00
1:54 AM,64.0,60.1,87,29.96,10.0,North,5.8,-,N/A,,Clear,360,2013-08-09 06:54:00
2:54 AM,64.0,57.9,80,29.98,10.0,NNE,3.5,-,N/A,,Mostly Cloudy,20,2013-08-09 07:54:00
3:54 AM,61.0,55.9,83,29.98,10.0,North,4.6,-,N/A,,Clear,10,2013-08-09 08:54:00
4:54 AM,61.0,57.0,87,29.99,10.0,Calm,Calm,-,N/A,,Clear,0,2013-08-09 09:54:00
5:54 AM,60.1,57.0,90,29.99,10.0,NE,3.5,-,N/A,,Clear,40,2013-08-09 10:54:00
6:54 AM,61.0,57.9,90,30.00,8.0,NNE,3.5,-,N/A,,Clear,20,2013-08-09 11:54:00
7:54 AM,66.0,59.0,78,30.01,10.0,Calm,Calm,-,N/A,,Clear,0,2013-08-09 12:54:00
8:54 AM,71.1,59.0,66,30.01,10.0,NE,4.6,-,N/A,,Clear,40,2013-08-09 13:54:00
9:54 AM,75.0,62.1,64,30.02,10.0,NE,4.6,-,N/A,,Clear,50,2013-08-09 14:54:00
10:54 AM,77.0,63.0,62,30.02,10.0,North,5.8,-,N/A,,Clear,10,2013-08-09 15:54:00
11:54 AM,80.1,62.1,54,30.03,10.0,North,4.6,-,N/A,,Clear,350,2013-08-09 16:54:00
12:54 PM,81.0,57.0,44,30.02,10.0,NNE,8.1,-,N/A,,Clear,30,2013-08-09 17:54:00
1:54 PM,81.0,57.0,44,30.03,10.0,Calm,Calm,-,N/A,,Clear,0,2013-08-09 18:54:00
2:54 PM,82.0,53.1,37,30.03,10.0,NE,3.5,-,N/A,,Clear,40,2013-08-09 19:54:00
3:54 PM,80.1,57.0,45,30.02,10.0,North,5.8,-,N/A,,Clear,350,2013-08-09 20:54:00
4:54 PM,80.1,55.9,43,30.02,10.0,ENE,4.6,-,N/A,,Clear,60,2013-08-09 21:54:00
5:54 PM,77.0,62.1,60,30.01,10.0,NE,4.6,-,N/A,,Clear,50,2013-08-09 22:54:00
6:54 PM,75.9,63.0,64,30.01,8.0,Calm,Calm,-,N/A,,Clear,0,2013-08-09 23:54:00
7:54 PM,73.0,64.9,76,30.02,10.0,North,3.5,-,N/A,,Clear,360,2013-08-10 00:54:00
8:54 PM,72.0,64.9,78,30.04,10.0,Calm,Calm,-,N/A,,Clear,0,2013-08-10 01:54:00
9:54 PM,72.0,64.0,76,30.05,10.0,WNW,3.5,-,N/A,,Clear,300,2013-08-10 02:54:00
10:54 PM,71.1,64.0,78,30.06,10.0,Calm,Calm,-,N/A,,Clear,0,2013-08-10 03:54:00
11:54 PM,72.0,64.0,76,30.07,10.0,NW,3.5,-,N/A,,Clear,310,2013-08-10 04:54:00